OBJECT B, 56744

Orbit data source: Space-Track

You're viewing an Uncataloged Satellite

Recently launched and/or uncataloged satellites may have evolving metadata. Metadata may include but not limited to: Owner, Maufacturer, Bus, Motor, and Mission.

OBJECT B, 56744 is a satellite owned by KASI (KR) in SSO that was launched on Thu, 25 May 2023 UTC via an NURI launch vehicle from the Naro Space Center, South Korea (NSC). Unknown objects in Earth's orbit typically refer to objects detected orbiting the Earth but have not yet been identified or cataloged. These objects could be anything from previously untracked satellites, spent rocket stages, debris from satellite collisions, or even natural meteoroids temporarily captured by Earth's gravity.

Loading next visibility...
Identifier
56744, 2023-072B
Orbit
SSO
Country
Flag of KRKR / SKOR
Related business
Flag of KRKorea Astronomy and Space Science Institute (KR)
Manufacturer
KASI
Mission
Operational Civil Ast/Sci
Bus & Motor
CUBESAT 6U, Unknown motor
Mass
10 kg wet, 10 kg dry
Launch date (UTC)
2023-05-25 (3 years ago)
Launch vehicle
NURI
Launch site
Naro Space Center, South Korea (NSC)
Object type
Unknown
Shape & HBR
Box + 2 Pan, 0.3 m
Radar Cross Section
0.054 m², Medium (>0.1 m² and < 1m²)

Expand to show TLE details & history
Last TLE update: 9 hours ago

TLE from 9 hours ago
0 OBJECT B
1 56744U 23072B   26126.27911943  .00017842  00000-0  43779-3 0  9998
2 56744  97.5292 331.0017 0007142 113.8183 246.3813 15.40736470163651
Epoch: 2026-05-06T06:41Z
TLE epoch observation values (Epoch: 2026-05-06T06:41:55.918Z)
Latitude
0.00002°
Longitude
6.37681°
Altitude
449.005 km
Speed
7.642 km/s
True Right ascension
22h 04m 00s
True Declination
0° 00' 00"
Sunlit
Object was in daylight at epoch
Visualization orbit readout
Latitude
Unknown
Longitude
Unknown
Altitude
Unknown
Speed
Unknown
Apparent Right ascension
Unknown
Apparent Declination
Unknown
Sunlit
N/A
Visualization observer readout
Local Sidereal Time
23:33:17
Azimuth
Unknown
Elevation
Unknown
Doppler factor
Unknown
Orbital elements
Apogee altitude
445.748 km
Perigee altitude
436.008 km
Semi-major axis
6,819.015 km
Eccentricity
0.00071
Inclination
97.5292°
RAAN
331.0017°
Arg. of periapsis
113.8183°
True anomaly
246.30634°
Mean anomaly
246.3813°
Eccentric anomaly
246.34382°
Mean motion
3.85443 °/min
Orbital period
93.4 mins
BSTAR
0.00043779
Loading maneuver chart data...
Computing Atmospheric mass density...
Loading historical data...
Loading historical data...
Loading historical data...
Loading historical data...
Loading historical data...
Loading historical data...
Loading historical data...

Documentation

Showing up to 5 results
|